Regional Weather Roundup
Issued by NWS

Home | Current Version | Previous Version | Graphics & Text | Print | Product List | Glossary On
Versions: 1 2 3 4 5 6 7 8 9 10 11 12 13 14 15 16 17 18 19 20 21 22 23 24 25 26 27 28 29 30 31 32 33 34 35 36 37 38 39 40 41 42 43 44 45 46 47 48 49 50
000
ASUS43 KMKX 281259
RWRWI

WISCONSIN REGIONAL WEATHER ROUNDUP
NATIONAL WEATHER SERVICE MILWAUKEE/SULLIVAN WI
700 AM CST SAT FEB 28 2015

NOTE: "FAIR" INDICATES FEW OR NO CLOUDS BELOW 12,000 FEET WITH NO
SIGNIFICANT WEATHER AND/OR OBSTRUCTIONS TO VISIBILITY.

WIZ001-002-006>008-014>016-023>028-281400-
NORTHWEST WISCONSIN

CITY           SKY/WX    TMP DP  RH WIND       PRES   REMARKS
SUPERIOR ARPT  PTCLDY    -2  -6  84 SW6       30.49S WCI -14
ASHLAND        PTCLDY    -2  -6  83 S6        30.50S WCI -14
HAYWARD        PTCLDY   -13 -20  71 SW3       30.48S
SIREN          PTCLDY    -6 -10  83 CALM      30.50S
CUMBERLAND     PTCLDY    -9 -15  77 S6        30.49S WCI -23
RICE LAKE      PTCLDY    -9 -14  80 SE3       30.53S
CHETEK         PTCLDY   -13 -18  79 MISG      30.53S
LADYSMITH      PTCLDY    -9 -14  79 SE3       30.53S
EAU CLAIRE     PTCLDY    -9 -14  78 CALM      30.56S
MENOMONIE      PTCLDY    -6 -10  80 SE5       30.56S WCI -16
NEW RICHMOND   PTCLDY    -4  -8  81 S6        30.51F WCI -16
OSCEOLA        PTCLDY    -2  -6  84 S5        30.55S WCI -12
$$

WIZ003>005-009-010-017-018-281400-
NORTH CENTRAL WISCONSIN

CITY           SKY/WX    TMP DP  RH WIND       PRES   REMARKS
MANITOWISH WTR PTCLDY   -15 -20  80 CALM      30.44S
ARBOR VITAE    PTCLDY   -12 -19  71 CALM      30.45S
WOODRUFF       PTCLDY   -12 -19  71 CALM      30.45S
RHINELANDER    PTCLDY    -9 -13  83 SW3       30.47R
EAGLE RIVER    MOCLDY   -11 -17  74 CALM      30.45S
LAND O LAKES   PTCLDY   -21 -28  72 CALM      30.45S
PHILLIPS       PTCLDY   -12 -15  82 S3        30.48R
TOMAHAWK       PTCLDY   -18 -24  76 CALM      30.50S
MEDFORD        PTCLDY   -11 -15  80 SW5       30.50R WCI -23
MERRILL        PTCLDY   -20 -26  73 CALM      30.52R
$$

WIZ029-030-035-036-043>047-281400-
CENTRAL WISCONSIN

CITY           SKY/WX    TMP DP  RH WIND       PRES   REMARKS
WAUSAU         PTCLDY    -8 -11  86 S5        30.54R WCI -19
MOSINEE        CLEAR     -9 -13  84 S3        30.55R
MARSHFIELD     PTCLDY    -7 -10  87 SW6       30.54S WCI -20
STEVENS POINT  PTCLDY   -11 -15  83 CALM      30.58R
WAUPACA        PTCLDY    -3  -9  77 CALM      30.62R
WAUTOMA        NOT AVBL
WISC RAPIDS    PTCLDY   -11 -17  75 CALM      30.60S
CAMP DOUGLAS   NOT AVBL
$$

WIZ011>013-019>022-031-037>040-048>050-281400-
NORTHEAST WISCONSIN

CITY           SKY/WX    TMP DP  RH WIND       PRES   REMARKS
ANTIGO         PTCLDY   -12 -15  85 CALM      30.50S
SHAWANO        PTCLDY    -1  -7  74 CALM      30.60R
OCONTO         CLEAR     -6 -10  81 CALM      30.61S
STURGEON BAY   CLEAR      1  -8  66 W8        30.61S WCI -12
GREEN BAY      CLEAR      0  -6  76 SW6       30.62S WCI -12
MANITOWOC      NOT AVBL
APPLETON       CLEAR     -4  -9  77 SW6       30.61R WCI -16
CLINTONVILLE   PTCLDY    -2  -8  78 S3        30.60R
OSHKOSH        PTCLDY    -2  -8  76 S6        30.62S WCI -14
$$

WIZ032>034-041-042-053>061-281400-
SOUTHWEST WISCONSIN

CITY           SKY/WX    TMP DP  RH WIND       PRES   REMARKS
LA CROSSE      PTCLDY    -8 -14  74 S6        30.63F WCI -21
SPARTA         PTCLDY   -17 -23  73 CALM      30.62S
VIROQUA        PTCLDY    -6  -9  84 S5        30.56S WCI -17
BOSCOBEL       PTCLDY   -19 -26  70 CALM      30.67S
PRAIRIE DU CHI FAIR     -17 -24  70 CALM      30.66F
PLATTEVILLE    PTCLDY    -7 -11  82 SE5       30.63R WCI -18
$$

WIZ056-057-062-063-064-067-068-281400-
SOUTH CENTRAL WISCONSIN

CITY           SKY/WX    TMP DP  RH WIND       PRES   REMARKS
REEDSBURG      PTCLDY   -10 -14  82 CALM      30.62R
BARABOO/DELLS  PTCLDY    -6 -11  81 CALM      30.61S
LONE ROCK      NOT AVBL
MINERAL POINT  MOCLDY    -4  -8  84 S6        30.60R WCI -16
MADISON        PTCLDY    -8 -13  78 S5        30.64R WCI -19
MIDDLETON      PTCLDY   -13 -20  72 CALM      30.64R
WATERTOWN      PTCLDY    -9 -13  81 CALM      30.64S
MONROE         MOCLDY    -4  -8  84 S8        30.62R WCI -19
JANESVILLE     CLEAR    -11 -18  70 CALM      30.66S
$$

WIZ051-052-058>065-066-070>072-281400-
SOUTHEAST WISCONSIN

CITY           SKY/WX    TMP DP  RH WIND       PRES   REMARKS
MILWAUKEE      PTCLDY    -3  -9  75 SW3       30.67S
WAUKESHA       CLEAR     -4  -9  77 W5        30.65S WCI -15
MILWAUKEE/TIMM NOT AVBL
RACINE         PTCLDY    -5 -11  75 SW7       30.69S WCI -19
BURLINGTON     MOCLDY   -16 -21  78 CALM      30.66S
KENOSHA        MOCLDY    -8 -14  74 SW3       30.68R
FOND DU LAC    PTCLDY    -4 -10  75 S5        30.64R WCI -15
SHEBOYGAN      CLEAR     -2  -8  76 S6        30.64R WCI -14
WEST BEND      CLEAR     -2  -8  78 CALM      30.63S
JUNEAU         PTCLDY    -5 -10  80 SE5       30.64S WCI -16
$$

LSZ147-162-281400-
LAKE SUPERIOR

STATION/POSITION TIME  TEMP    WIND        PRES    WAVE
                       AIR SEA DIR/SP/G            HT/PER
                 (UTC) (F)     (DEG/KT/KT) (MB)    (FT/S)
DEVILS ISLAND    1200    7     230/ 13/ 17 1033.9R
PORT WING        1200    3     190/  8/ 10 1032.5R
SAXON HARBOR     1200    3     190/  2/  6 1033.2R
$$

LMZ867-665-643>646-281400-
LAKE MICHIGAN

STATION/POSITION TIME  TEMP    WIND        PRES    WAVE
                       AIR SEA DIR/SP/G            HT/PER
                 (UTC) (F)     (DEG/KT/KT) (MB)    (FT/S)
NORTHPORT PIER   1238    4     230/  5/ 10 1035.6S
SISTER BAY       1143    4     230/  7/  9   N/A
KEWAUNEE LAKESHO 1200    2     280/  5/  8 1035.8R
SHEBOYGAN LAKESH 1200    4     250/  4/  5 1039.8R
PORT WASHINGTON  1200    2     250/  3/  5 1038.9R
MILWAUKEE LAKESH 1200    4     240/  4/  5   N/A
KENOSHA   LAKESH 1200    0     230/  2/  5 1038.6R
$$

TC  - TEMPERATURE IN CELSIUS
VSB - VISIBILITY IN STATUTE MILES
WCI - WIND CHILL INDEX
HX  - HEAT INDEX



USA.gov is the U.S. government's official web portal to all federal, state and local government web resources and services.